Hourly Data Report for April 17, 2003

TORONTO CITY
ONTARIO

43°40'00.000" N
79°24'00.000" W
112.50 m
6158355
71508
XTO

Download Data

Hourly Data (April 2003)
Hourly Data Report for April 17, 2003
TIME
LST
Temp Definition
°C
Dew Point Definition
°C
Rel Hum Definition
%
Precip. Amount Definition
mm

Wind Dir Definition
10's deg

Wind Spd Definition
km/h
Visibility Definition
km
Stn Press Definition
kPa
Hmdx Definition


Wind Chill Definition


Weather Definition


00:00 1.3 -11.4 38   LegendMM LegendMM LegendMM 101.13     LegendNANA
01:00 0.8 -11.7 39   LegendMM LegendMM LegendMM 101.16     LegendNANA
02:00 0.1 -13.0 37   LegendMM LegendMM LegendMM 101.16     LegendNANA
03:00 -0.3 -12.7 39   LegendMM LegendMM LegendMM 101.20     LegendNANA
04:00 -0.7 -12.4 41   LegendMM LegendMM LegendMM 101.20     LegendNANA
05:00 -1.1 -12.5 42   LegendMM LegendMM LegendMM 101.27     LegendNANA
06:00 -1.6 -11.5 47   LegendMM LegendMM LegendMM 101.31     LegendNANA
07:00 -1.5 -12.2 44   LegendMM LegendMM LegendMM 101.35     LegendNANA
08:00 -1.6 -11.5 47   LegendMM LegendMM LegendMM 101.33     LegendNANA
09:00 -0.7 -10.8 46   LegendMM LegendMM LegendMM 101.28     LegendNANA
10:00 -0.2 -11.1 44   LegendMM LegendMM LegendMM 101.26     LegendNANA
11:00 0.5 -9.7 46   LegendMM LegendMM LegendMM 101.25     LegendNANA
12:00 0.9 -9.3 46   LegendMM LegendMM LegendMM 101.20     LegendNANA
13:00 2.0 -8.6 45   LegendMM LegendMM LegendMM 101.18     LegendNANA
14:00 2.3 -8.5 45   LegendMM LegendMM LegendMM 101.10     LegendNANA
15:00 2.4 -8.7 44   LegendMM LegendMM LegendMM 101.06     LegendNANA
16:00 3.0 -7.7 45   LegendMM LegendMM LegendMM 100.99     LegendNANA
17:00 3.5 -8.5 41   LegendMM LegendMM LegendMM 100.94     LegendNANA
18:00 4.0 -8.3 40   LegendMM LegendMM LegendMM 100.89     LegendNANA
19:00 4.1 -7.7 42   LegendMM LegendMM LegendMM 100.82     LegendNANA
20:00 4.1 -7.0 44   LegendMM LegendMM LegendMM 100.82     LegendNANA
21:00 3.7 -6.4 48   LegendMM LegendMM LegendMM 100.81     LegendNANA
22:00 3.3 -5.0 54   LegendMM LegendMM LegendMM 100.77     LegendNANA
23:00 3.0 -3.8 61   LegendMM LegendMM LegendMM 100.74     LegendNANA

Notes on Data Quality.

Legend

  • E = Estimated
  • M = Missing
  • NA = Not Available*
  • [empty] = Indicates an unobserved value
Date modified: